Flag for Canada Weather past 2 weeks in Oakville, Ontario, Canada

Now
54 °F

Cool.


Feels Like: 52 °F
Forecast: 44 / 57 °F
Wind: 6 mph from East

Location: Burlington Piers

Current Time: Oct 23, 2014 at 1:57:23 PM

Latest Report: Oct 23, 2014 at 1:00 PM


Visibility: N/A

Pressure: 30.11 "Hg

Humidity: 61%

Dew point: 41 °F

Location of OakvilleLocation

Historic Weather in Oakville — Graph

°F

Oakville temperature yesterday

Maximum temperature yesterday: 50 °F (at 9:00 PM)
Minimum temperature yesterday: 42 °F (at 8:00 AM)
Average temperature yesterday: 45 °F

Past Weeks' High & Low Weather Summary

 TemperatureHumidityPressure
High76 °F (Oct 14, 3:00 PM)100% (Oct 16, 10:00 AM)30.29 "Hg (Oct 16, 10:00 AM)
Low40 °F (Oct 19, 10:00 AM)35% (Oct 11, 5:00 PM)29.48 "Hg (Oct 17, 10:00 PM)
Average52 °F74%29.94 "Hg
* Reported Oct 8 12:00 Noon — Oct 23 12:00 Noon, Oakville, Weather by CustomWeather, © 2014

Note: Actual official high and low records may vary slightly from our data, if they occured in-between our weather recording intervals... More about our weather records

Advertising

Oakville weather history for previous 24 hours

 ConditionsComfort  
Time TempWeatherWind HumidityBarometerVisibility
12:00 PM
Oct 23
56 °FRefreshingly cool.10 mph52%30.14 "HgN/A
11:00 AM53 °FCool.3 mph58%30.16 "HgN/A
10:00 AM51 °FCool.5 mph65%30.18 "HgN/A
9:00 AM50 °FCool.12 mph65%30.17 "HgN/A
8:00 AM48 °FCool.13 mph70%30.17 "HgN/A
7:00 AM48 °FCool.15 mph71%30.18 "HgN/A
6:00 AM48 °FCool.14 mph71%30.19 "HgN/A
5:00 AM48 °FCool.14 mph73%30.19 "HgN/A
4:00 AM48 °FCool.14 mph73%30.18 "HgN/A
3:00 AM49 °FCool.13 mph68%30.19 "HgN/A
2:00 AM48 °FCool.12 mph75%30.19 "HgN/A
1:00 AM48 °FCool.12 mph76%30.21 "HgN/A
12:00 AM49 °FCool.10 mph74%30.23 "HgN/A
11:00 PM
Oct 22
47 °FCool.13 mph74%30.24 "HgN/A
10:00 PM50 °FCool.15 mph65%30.24 "HgN/A
9:00 PM50 °FCool.10 mph63%30.23 "HgN/A
8:00 PM50 °FCool.3 mph69%30.24 "HgN/A
7:00 PM48 °FCool.5 mph72%30.24 "HgN/A
6:00 PM47 °FCool.2 mph72%30.24 "HgN/A
5:00 PM46 °FCool.13 mph80%30.23 "HgN/A
4:00 PM46 °FCool.7 mph77%30.23 "HgN/A
3:00 PM46 °FCool.6 mph70%30.24 "HgN/A
2:00 PM46 °FCool.6 mph69%30.25 "HgN/A
1:00 PM45 °FCool.8 mph73%30.28 "HgN/A
Weather by CustomWeather, © 2014

See weather overviewHow to use our weather pages